Breckenridge, TX

9:17 PM CST on November 17, 2019 (GMT -0600)
Stephens County

Weather History for KBKD - October, 2019

Change the Weather History Date:

Monday, October 14, 2019

  Actual Average (KMWL) Record (KMWL)
Temperature  
Mean Temperature 72 °F -  
Max Temperature 79 °F 76 °F 97 °F (2015)
Min Temperature 64 °F 53 °F 42 °F (1997)
Cooling Degree Days 6    
Growing Degree Days 22 (Base 50)    
Moisture  
Dew Point 54 °F    
Average Humidity 53    
Maximum Humidity 79    
Minimum Humidity 40    
Precipitation  
Precipitation 0.00 in - - ()
Sea Level Pressure  
Sea Level Pressure 29.94 in    
Wind  
Wind Speed - (North)    
Max Wind Speed -    
Max Gust Speed -    
Visibility 6 miles    
Events Rain    
Averages and records for this station are not official NWS values.
T = Trace of Precipitation, MM = Missing Value Source: NWS Daily Summary

Daily Weather History Graph

Daily Weather History Graph

Search for Another Location

Airport or City:

Astronomy

Oct. 14, 2019 Rise Set
Actual Time 7:38 AM CDT 7:03 PM CDT
Civil Twilight 7:13 AM CDT 7:28 PM CDT
Nautical Twilight 6:45 AM CDT 7:57 PM CDT
Astronomical Twilight 6:16 AM CDT 8:25 PM CDT
Moon 7:55 PM CDT (10/14) 8:12 AM CDT (10/14)
Length of Visible Light 12h 14m
Length of Day
11h 25m
Full, 99% of the Moon is Illuminated
Oct 14
Full
Oct 21
Last Quarter
Oct 27
New
Nov 4
First Quarter
Nov 12
Full

Hourly Weather History & Observations

Time (CDT) Temp. Dew Point Humidity Pressure Visibility Wind Dir Wind Speed Gust Speed Precip Events Conditions
12:15 AM 69.8 °F 46.4 °F 43% 29.95 in 7.0 mi North - - N/A   Clear
12:35 AM 68.9 °F 46.6 °F 45% 29.94 in 7.0 mi North - - N/A   Clear
12:55 AM 68.4 °F 47.3 °F 47% 29.94 in 7.0 mi North - - N/A   Clear
1:15 AM 68.0 °F 47.3 °F 47% 29.94 in 7.0 mi North - - N/A   Clear
1:35 AM 68.0 °F 47.5 °F 48% 29.94 in 7.0 mi North - - N/A   Clear
1:55 AM 67.3 °F 47.7 °F 49% 29.95 in 7.0 mi North - - N/A   Clear
2:15 AM 67.1 °F 47.3 °F 49% 29.95 in 7.0 mi North - - N/A   Clear
2:35 AM 66.9 °F 47.3 °F 49% 29.95 in 7.0 mi North - - N/A   Clear
2:55 AM 67.5 °F 46.6 °F 47% 29.95 in 7.0 mi North - - N/A   Clear
3:15 AM 67.1 °F 46.9 °F 48% 29.94 in 7.0 mi North - - N/A   Clear
3:35 AM 66.6 °F 46.8 °F 49% 29.94 in 7.0 mi North - - N/A   Clear
3:55 AM 66.7 °F 46.4 °F 48% 29.94 in 7.0 mi North - - N/A   Clear
4:15 AM 67.1 °F 45.9 °F 46% 29.94 in 7.0 mi North - - N/A   Clear
4:35 AM 66.4 °F 46.0 °F 48% 29.93 in 7.0 mi North - - N/A   Clear
4:55 AM 66.0 °F 46.4 °F 49% 29.93 in 7.0 mi North - - N/A   Clear
5:15 AM 64.8 °F 47.3 °F 53% 29.94 in 7.0 mi North - - N/A   Clear
5:35 AM 64.6 °F 47.7 °F 54% 29.95 in 7.0 mi North - - N/A   Clear
5:55 AM 64.9 °F 47.5 °F 53% 29.95 in 7.0 mi North - - N/A   Clear
6:15 AM 65.3 °F 47.3 °F 52% 29.95 in 7.0 mi North - - N/A   Clear
6:35 AM 65.7 °F 47.3 °F 51% 29.95 in 7.0 mi North - - N/A   Clear
6:55 AM 66.6 °F 47.1 °F 50% 29.95 in 7.0 mi North - - N/A   Clear
7:15 AM 67.1 °F 47.3 °F 49% 29.96 in 7.0 mi North - - N/A   Clear
7:35 AM 67.1 °F 47.3 °F 49% 29.97 in 7.0 mi North - - N/A   Clear
7:55 AM 67.1 °F 47.7 °F 50% 29.97 in 7.0 mi North - - N/A   Clear
8:35 AM 68.4 °F 48.4 °F 49% 29.96 in 5.0 mi North - - N/A   Haze
8:55 AM 69.8 °F 49.1 °F 48% 29.97 in 5.0 mi North - - N/A   Haze
9:15 AM 70.5 °F 49.1 °F 47% 29.98 in 5.0 mi North - - N/A   Haze
9:35 AM 72.5 °F 49.1 °F 44% 29.99 in 5.0 mi North - - N/A   Haze
9:55 AM 73.6 °F 49.6 °F 43% 29.99 in 7.0 mi North - - N/A   Clear
10:15 AM 75.7 °F 50.9 °F 42% 30.00 in 7.0 mi North - - N/A   Clear
10:35 AM 77.4 °F 51.8 °F 41% 30.00 in 5.0 mi North - - N/A   Haze
10:55 AM 77.9 °F 52.3 °F 41% 30.00 in 5.0 mi North - - N/A   Haze
11:15 AM 78.1 °F 52.5 °F 41% 30.00 in 5.0 mi North - - N/A   Haze
11:35 AM 79.0 °F 52.9 °F 40% 30.00 in 5.0 mi North - - N/A   Haze
11:55 AM 78.8 °F 53.1 °F 41% 29.99 in 5.0 mi North - - N/A   Haze
12:15 PM 78.3 °F 53.4 °F 42% 29.99 in 5.0 mi North - - N/A   Haze
12:35 PM 78.1 °F 53.6 °F 43% 29.98 in 5.0 mi North - - N/A   Haze
12:55 PM 77.4 °F 53.8 °F 44% 29.97 in 5.0 mi North - - N/A   Haze
1:15 PM 74.5 °F 58.5 °F 57% 29.97 in 10.0 mi North - - N/A Rain Light Rain
1:35 PM 74.5 °F 60.6 °F 62% 29.95 in 7.0 mi North - - N/A Rain Light Rain
1:55 PM 74.7 °F 60.8 °F 62% 29.94 in 10.0 mi North - - N/A Rain Light Rain
2:15 PM 75.4 °F 60.1 °F 59% 29.94 in 5.0 mi North - - N/A   Haze
2:35 PM 75.6 °F 58.6 °F 56% 29.93 in 7.0 mi North - - N/A   Mostly Cloudy
2:55 PM 75.4 °F 58.8 °F 56% 29.92 in 10.0 mi North - - N/A   Light Drizzle
3:15 PM 76.6 °F 59.2 °F 55% 29.91 in 7.0 mi North - - N/A Rain Light Rain
3:35 PM 77.4 °F 57.4 °F 50% 29.91 in 5.0 mi North - - N/A   Haze
3:55 PM 77.9 °F 58.1 °F 50% 29.90 in 5.0 mi North - - N/A   Haze
4:15 PM 78.1 °F 57.6 °F 49% 29.90 in 5.0 mi North - - N/A   Haze
4:35 PM 77.0 °F 58.5 °F 53% 29.90 in 7.0 mi North - - N/A   Light Drizzle
4:55 PM 77.4 °F 57.7 °F 51% 29.90 in 5.0 mi North - - N/A   Haze
5:15 PM 77.4 °F 58.5 °F 52% 29.90 in 5.0 mi North - - N/A   Haze
5:35 PM 77.0 °F 58.3 °F 52% 29.90 in 7.0 mi North - - N/A   Clear
5:55 PM 76.5 °F 58.3 °F 53% 29.90 in 5.0 mi North - - N/A   Haze
6:15 PM 75.7 °F 58.6 °F 55% 29.90 in 5.0 mi North - - N/A   Haze
6:35 PM 75.2 °F 59.0 °F 57% 29.90 in 5.0 mi North - - N/A   Haze
6:55 PM 74.8 °F 59.4 °F 58% 29.91 in 7.0 mi North - - N/A   Clear
7:15 PM 73.9 °F 59.9 °F 61% 29.90 in 7.0 mi North - - N/A   Clear
7:35 PM 73.6 °F 60.1 °F 63% 29.91 in 7.0 mi North - - N/A   Clear
7:55 PM 73.4 °F 60.4 °F 64% 29.91 in 7.0 mi North - - N/A   Clear
8:15 PM 72.9 °F 60.8 °F 66% 29.91 in 7.0 mi North - - N/A   Clear
8:35 PM 72.9 °F 60.8 °F 66% 29.91 in 7.0 mi North - - N/A   Clear
8:55 PM 73.0 °F 60.8 °F 65% 29.91 in 7.0 mi North - - N/A   Mostly Cloudy
9:15 PM 72.9 °F 60.4 °F 65% 29.92 in 7.0 mi North - - N/A   Scattered Clouds
9:35 PM 72.5 °F 60.8 °F 67% 29.92 in 7.0 mi North - - N/A   Scattered Clouds
9:55 PM 71.8 °F 60.8 °F 68% 29.93 in 7.0 mi North - - N/A   Scattered Clouds
10:15 PM 71.8 °F 61.5 °F 70% 29.93 in 7.0 mi North - - N/A   Mostly Cloudy
10:35 PM 72.0 °F 62.1 °F 71% 29.92 in 7.0 mi North - - N/A   Overcast
10:55 PM 71.6 °F 62.6 °F 73% 29.92 in 7.0 mi North - - N/A   Overcast
11:15 PM 71.6 °F 63.1 °F 75% 29.92 in 7.0 mi North - - N/A   Overcast
11:35 PM 71.8 °F 64.0 °F 77% 29.92 in 7.0 mi North - - N/A   Overcast
11:55 PM 72.0 °F 65.1 °F 79% 29.91 in 7.0 mi North - - N/A   Overcast